STARLINK-1474, 45738

Orbit data source: Space-Track

STARLINK-1474, 45738 is a payload satellite owned by SpaceX/Seattle (US) in LEO that was launched on Sat, 13 Jun 2020 UTC via an FALCON 9 launch vehicle from the Air Force Eastern Test Range (AFETR). Payload-class satellites include a variety of spacecraft equipped with specific instruments for various scientific and technological missions. These include communications satellites like Starlink; space stations such as the ISS; scientific satellites like the Hubble; Earth observation satellites from companies like Planet Labs, Umbra, and HawkEye 360; GPS; miniature CubeSats for education and research; and military/defense satellites.

Loading next visibility...
Identifier
45738, 2020-038J
Orbit
LEO
Country
Flag of USUS
Related business
Manufacturer
SpaceX/Seattle
Mission
Partially operational Commercial Communications
Bus & Motor
STARLINK, Unknown motor
Mass
260 kg wet, ~248 kg dry
Launch date (UTC)
2020-06-13 (5 years ago)
Launch vehicle
FALCON 9
Launch site
Air Force Eastern Test Range (AFETR)
Object type
Payload
Rocket body
Debris
Shape & HBR
Box + 1 Pan, 10.1 m
Radar Cross Section
13.562 m², Large (>1 m²)

Expand to show TLE details & history
Last TLE update: 22 hours ago

TLE from 22 hours ago
0 STARLINK-1474
1 45738U 20038J   25340.00003472  .00135580  00000-0  91530-3 0  9993
2 45738  53.0319 178.5169 0002774 118.6131  19.8235 15.74180744  5967
Epoch: 2025-12-06T00:00Z
TLE epoch observation values (Epoch: 2025-12-06T00:00:02.999Z)
Latitude
32.10697°
Longitude
-104.53982°
Altitude
347.246 km
Speed
7.706 km/s
True Right ascension
22h 02m 01s
True Declination
31° 56' 34"
Sunlit
Object was in daylight at epoch
Visualization orbit readout
Latitude
Unknown
Longitude
Unknown
Altitude
Unknown
Speed
Unknown
Apparent Right ascension
Unknown
Apparent Declination
Unknown
Sunlit
N/A
Visualization observer readout
Local Sidereal Time
19:33:15
Azimuth
Unknown
Elevation
Unknown
Doppler factor
Unknown
Orbital elements
Apogee altitude
349.111 km
Perigee altitude
345.38 km
Semi-major axis
6,725.383 km
Eccentricity
0.00028
Inclination
53.0319°
RAAN
178.5169°
Arg. of periapsis
118.6131°
True anomaly
19.83428°
Mean anomaly
19.8235°
Eccentric anomaly
19.82889°
Mean motion
3.93521 °/min
Orbital period
91.48 mins
BSTAR
0.0009153
Loading maneuver chart data...
Computing Atmospheric mass density...

Documentation

Showing up to 5 results
|